Location: Bodest
(46.3000°N, 22.5667°E)
Time: 15:35:33
(UTC+00:00)

SL-19 R/B - Pass Details

Date: 29 May 2022
Orbit: 874 x 1208 km, 100.6° (Epoch: 03 July)

Event Time Altitude Azimuth Distance (km) Brightness Sun altitude
Rises 02:03:00 0° 92° (E) 3,644 8.3 -6.4°
Reaches altitude 10° 02:07:15 10° 63° (ENE) 2,777 8.5 -5.9°
Maximum altitude 02:09:20 12° 43° (NE) 2,683 8.5 -5.6°
Drops below altitude 10° 02:11:27 10° 23° (NNE) 2,859 8.1 -5.3°
Sets 02:16:00 0° 355° (N) 3,902 8.2 -4.7°
